Regional Weather Roundup
Issued by NWS

Home | Current Version | Previous Version | Text Only | Print | Product List | Glossary On
Versions: 1 2 3 4 5 6 7 8 9 10 11 12 13 14 15 16 17 18 19 20 21 22 23 24 25 26 27 28 29 30 31 32 33 34 35 36 37 38 39 40 41 42 43 44 45 46 47 48 49 50
000
ASUS45 KBOU 301010
RWRCO

WEATHER ROUNDUP FOR COLORADO
NATIONAL WEATHER SERVICE DENVER/BOULDER CO
400 AM MDT TUE JUN 30 2015

NOTE: "FAIR" INDICATES FEW OR NO CLOUDS BELOW 12000 FEET WITH NO
SIGNIFICANT WEATHER AND/OR OBSTRUCTIONS TO VISIBILITY.

COZ001>005-013-030-031-301100-
...NORTHWEST COLORADO...

CITY           SKY/WX    TMP DP  RH WIND       PRES   REMARKS
CRAIG          PTCLDY    53  46  77 CALM      30.24S
HAYDEN         PTCLDY    59  43  55 SE14      30.26S
MEEKER         PTCLDY    55  43  63 CALM      30.26S
MOUNT WERNER   NOT AVBL
STEAMBOAT SPGS PTCLDY    55  46  71 CALM      30.30S
WALDEN         PTCLDY    46  41  81 SE7       30.40R
$$

COZ006>008-011-301100-
...WEST CENTRAL VALLEYS...

CITY           SKY/WX    TMP DP  RH WIND       PRES   REMARKS
GRAND JUNCTION PTCLDY    70  44  39 SE7       30.09R
MONTROSE       PTCLDY    68  47  46 SE8       30.21R
EAGLE          PTCLDY    57  45  62 NE5       30.32S
RIFLE          PTCLDY    64  43  46 CALM      30.19R
DELTA          PTCLDY    68  47  45 NE5       30.16R
NUCLA          PTCLDY    64  43  45 E10       30.23S
$$

COZ017>023-064>068-301100-
...SOUTHWEST COLORADO...

CITY           SKY/WX    TMP DP  RH WIND       PRES   REMARKS
DURANGO        CLEAR     54  50  86 CALM      30.31R
CORTEZ         CLEAR     61  48  62 SW3       30.21S
PAGOSA SPRINGS CLEAR     54  44  68 CALM      30.41R
TELLURIDE      CLEAR     60  40  48 CALM      30.49S
WOLF CREEK PAS NOT AVBL
$$

COZ009-010-012-014-032>034-037-058>063-301100-
...CENTRAL COLORADO...

CITY           SKY/WX    TMP DP  RH WIND       PRES   REMARKS
ASPEN          CLEAR     56  42  59 SW7       30.37R
BUENA VISTA    CLEAR     51  46  84 N3        30.42S
COPPER MTN     CLEAR     54  37  54 W3        30.70F
BERTHOUD PASS  FAIR      45  36  70 NW16G24   30.74S
COTTONWOOD PAS NOT AVBL
GUNNISON       CLEAR     52  43  71 CALM      30.43R
KREMMLING      PTCLDY    50  41  71 CALM      30.39S
LEADVILLE      CLEAR     42  40  92 CALM      30.55S
MONARCH PASS   CLEAR     48  41  76 SW15      30.80F
SALIDA         CLEAR     54  50  85 CALM      30.47S
SUNLIGHT       PTCLDY    59  41  51 CALM      30.63S
WILKERSON PASS CLEAR     46  43  87 SW6       30.67S
$$

COZ069>075-301100-
...SAN LUIS VALLEY/SANGRE DE CRISTO MOUNTAINS...

CITY           SKY/WX    TMP DP  RH WIND       PRES   REMARKS
ALAMOSA        CLEAR     52  46  80 SE6       30.38S
LA VETA PASS   CLEAR     52  43  71 MISG      30.56F
SAGUACHE       CLEAR     54  46  76 N8        30.42S
$$

COZ035-036-038>040-301100-
...NORTHERN COLORADO FRONT RANGE...

CITY           SKY/WX    TMP DP  RH WIND       PRES   REMARKS
DENVER INTL AP PTCLDY    66  50  56 SW12      30.18S
DMNS CITY PARK   N/A     65  50  57 S5G12     30.18S
AURORA         PTCLDY    62  51  66 S8        30.20F
FRONT RANGE AP CLEAR     64  54  68 SW9       30.19F
ERIE MUNI ARPT CLEAR     59  52  77 CALM      30.16F
BOULDER MUN AP CLEAR     70  46  43 CALM      30.17S
CENTENNIAL     PTCLDY    62  50  64 SE6       30.22S
BROOMFIELD     CLEAR     64  48  55 CALM      30.20F
FORT COLLINS   PTCLDY    63  54  72 N3        30.17F
LONGMONT       PTCLDY    62  51  67 W3        30.17S
$$

COZ041-046-047-076>085-087-088-301100-
...PIKES PEAK/PALMER DIVIDE AND SOUTHERN FOOTHILLS...

CITY           SKY/WX    TMP DP  RH WIND       PRES   REMARKS
COLO. SPRINGS  PTCLDY    58  52  80 N7        30.27F
A. F. ACADEMY  CLEAR     53  49  85 N10       30.29S
ELLICOTT       CLEAR    N/A N/A N/A CALM      30.25F
FALCON         CLEAR     56  48  75 W7        30.32F
FORT CARSON    CLEAR     59  52  76 NW8       30.23F
LIMON          CLEAR     53  52  96 CALM      30.21S
MONUMENT HILL  CLEAR     55  48  76 MISG      30.32S
TRINIDAD       CLEAR     62  50  64 W15       30.24F
$$

COZ042>045-048>051-090-091-301100-
...NORTHEAST COLORADO...

CITY           SKY/WX    TMP DP  RH WIND       PRES   REMARKS
GREELEY ARPT   PTCLDY    59  55  88 N5        30.14F
AKRON          CLEAR     64  54  69 SW10      30.13F
BURLINGTON     CLEAR     61  53  75 W10       30.11F
WRAY           CLEAR     60  56  88 W3        30.07F
STERLING       CLEAR     59  55  88 SW3       30.08F
HOLYOKE        PTCLDY    63  55  77 W6        30.07S
FORT MORGAN    CLEAR     60   7  12 W6        30.13S
$$

COZ086-089-092>099-301100-
...SOUTHEAST COLORADO...

CITY           SKY/WX    TMP DP  RH WIND       PRES   REMARKS
PUEBLO         CLEAR     62  54  74 NW5       30.16S
LA JUNTA       CLEAR     63  54  72 S6        30.12F
LAMAR          CLEAR     58  55  90 CALM      30.09S
SPRINGFIELD      N/A     59  52  77 SW9       30.15F
$$


USA.gov is the U.S. government's official web portal to all federal, state and local government web resources and services.